www.pogodaiklimat.ru

Погода и климат >> Архив погоды >> Россия >> Астраханская область >> Астрахань


АРХИВ ПОГОДЫ в Астрахани

Время (UTC), дата Ветер
(напр.,м/с)
 
Видим.   Явления Облачность Т
(С)
Тd
(С)
f
(%)
Тe
(С)
Тes
(С)
Комфортность P
(гПа)
Po
(гПа)
Тmin
(С)
Tmax
(С)
R
(мм)
R24
(мм)
S
(см)
21 12.10 Ю 2 10 км 3/0
[Ac trans]
+11.2 +5.8 69 +10 +10 по сезону 1020.2 1022.8
00 13.10 Ю 2 10 км 6/6 1000 м
[Sc]
+11.0 +5.8 70 +10 +10 тепло 1019.0 1021.6
03 13.10 ЮЗ 2 10 км слабый ливневой дождь 10/10 600 м
[Cb cap]
+11.4 +5.8 68 +10 +10 по сезону 1018.9 1021.4 +7.7 0.0
06 13.10 ЮЗ 3 10 км слабый дождь {ливн. осадки} 9/6 300 м
[Frnb As op]
+11.8 +8.1 78 +10 +11 по сезону 1019.6 1022.1
09 13.10 З 3 10 км {дождь} 9/8 600 м
[Cb cap Ac trans]
+14.6 +8.0 65 +14 +15 по сезону 1018.7 1021.2
12 13.10 З 3 10 км {дождь} 9/5 600 м
[Cb calv Ac trans Ci fib]
+17.0 +7.0 52 +17 +18 тепло 1018.0 1020.5
15 13.10 Ю 1 10 км 6/0
[Ac trans Ci fib]
+13.6 +7.0 64 +14 +14 тепло 1018.1 1020.6 +17.1 0.0
18 13.10 Ю 1 10 км 3/0
[Ac trans]
+11.8 +6.4 69 +12 +12 тепло 1017.9 1020.5
21 13.10 Ю 1 10 км 9/3 600 м
[Cb cap Ac trans]
+12.8 +6.1 64 +13 +13 тепло 1017.1 1019.6
00 14.10 Ю 1 10 км 9/4 600 м
[Cb cap Ac trans]
+13.2 +9.5 78 +13 +13 тепло 1016.3 1018.8
03 14.10 Ю 1 10 км 9/6 600 м
[Cb cap Ac trans]
+12.8 +9.4 80 +13 +13 тепло 1016.3 1018.8 +11.7
06 14.10 Ю 2 10 км 8/0
[Ac trans Ci fib]
+16.8 +9.4 62 +17 +19 тепло 1016.6 1019.1
09 14.10 Ю 3 10 км 9/4 1000 м
[Cu med, cong Ac trans Ci fib]
+20.2 +8.0 45 +22 +24 комфорт 1015.4 1017.8
12 14.10 Ю 2 10 км 10/4 600 м
[Cb cap Ac As]
+20.2 +7.1 43 +22 +22 комфорт 1014.3 1016.7
15 14.10 Ю 2 10 км 10/10 1000 м
[Sc]
+17.0 +7.7 54 +17 +17 тепло 1014.9 1017.4 +21.5
18 14.10 З 2 10 км слабый дождь 10/6 300 м
[Frnb As trans]
+13.6 +9.9 78 +13 +13 тепло 1015.9 1018.4
21 14.10 ЮЗ 1 4000 м слабый дождь 10/6 300 м
[Frnb As op]
+12.8 +10.6 86 +13 +13 тепло 1015.4 1017.9
00 15.10 ЮЗ 2 4000 м слабый дождь 10/4 300 м
[Frnb As op]
+11.6 +10.4 92 +10 +10 тепло 1014.2 1016.7
03 15.10 ЮЗ 2 4000 м слабый дождь 10/4 300 м
[Frnb As op]
+10.7 +9.6 93 +9 +9 по сезону 1014.1 1016.6 +10.5 3
06 15.10 ЮЗ 2 4000 м в посл. час ливневой дождь 9/6 300 м
[Cb cap Ac trans Ci fib]
+11.8 +10.0 89 +11 +11 по сезону 1013.5 1016.0 +10.4
09 15.10 ЮЗ 3 10 км 9/8 300 м
[Cb cap Ci fib]
+14.4 +8.5 68 +14 +15 по сезону 1012.5 1015.0
12 15.10 ЮЗ 4 10 км 9/8 300 м
[Cb cap Ac trans]
+14.3 +7.6 64 +13 +13 по сезону 1011.0 1013.6
15 15.10 ЮЗ 3 10 км 9/9 600 м
[Cb cap]
+12.4 +8.1 75 +11 +11 по сезону 1010.5 1013.0 +15.2 0.0
18 15.10 ЮЗ 2 10 км 10/5 300 м
[Frnb As trans]
+10.2 +5.6 73 +9 +9 по сезону 1009.3 1011.9
21 15.10 Ю 3 10 км 10/6 300 м
[Frnb As op]
+9.1 +3.5 68 +7 +7 по сезону 1006.4 1008.9
00 16.10 Ю 4
{10}
4000 м слабый дождь 10/8 300 м
[Frnb As op]
+7.6 +6.2 91 +4 +4 по сезону 1002.4 1005.0
03 16.10 Ю 4 4000 м слабый дождь 10/10 200 м
[Frnb Ns]
+9.7 +8.8 94 +7 +7 по сезону 999.3 1001.8 +7.6 2
06 16.10 З 7-11
{13}
10 км {дождь} 9/9 600 м
[Cb cap]
+10.0 +7.3 83 +6 +6 прохладно 1001.4 1003.9
09 16.10 ЮЗ 5
{13}
10 км слабый ливневой дождь 9/9 600 м
[Cb cap]
+10.5 +7.2 80 +8 +8 прохладно 1001.9 1004.4
12 16.10 З 7-13
{16}
10 км {ливн. осадки} 10/10 600 м
[Cb cap]
+8.1 +4.3 77 +4 +4 очень
холодно
1004.2 1006.7
15 16.10 З 5
{15}
10 км {ливн. осадки, дождь} 9/8 300 м
[Frnb As trans]
+7.5 +4.9 84 +4 +4 холодно 1007.6 1010.1 +11.5 3
18 16.10 ЮЗ 5
{12}
10 км {ливн. осадки} 8/6 300 м
[Frnb As trans]
+7.9 +4.7 80 +4 +4 прохладно 1008.8 1011.4
21 16.10 З 6-11
{14}
10 км {дождь} 9/8 300 м
[Frnb As trans]
+7.5 +4.9 84 +3 +3 прохладно 1009.2 1011.8
00 17.10 З 6-11
{12}
4000 м слабый дождь 10/8 300 м
[Frnb As op]
+6.7 +5.5 92 +2 +2 прохладно 1009.5 1012.1
03 17.10 ЮЗ 6-11
{13}
4000 м слабый дождь 10/8 300 м
[Frnb As op]
+6.6 +5.3 91 +2 +2 холодно 1009.9 1012.5 +6.6 2
06 17.10 З 6-12
{14}
4000 м слабый дождь 10/10 300 м
[Frnb Ns]
+6.5 +5.1 91 +2 +2 холодно 1011.4 1014.0 +6.5
09 17.10 З 5-12
{12}
10 км {дождь} 10/8 300 м
[Frnb As op]
+7.9 +5.0 82 +4 +4 очень
холодно
1012.4 1015.0
12 17.10 З 5-11
{13}
10 км {дождь} 9/6 600 м
[Sc Ac trans]
+10.4 +4.5 67 +8 +8 холодно 1012.9 1015.4
15 17.10 З 4
{12}
10 км 9/9 600 м
[Sc]
+9.8 +3.3 64 +7 +7 прохладно 1014.3 1016.9 +10.7 5
18 17.10 З 4 10 км 9/9 600 м
[Sc]
+8.5 +3.0 68 +6 +6 по сезону 1015.3 1017.9
21 17.10 З 3 10 км 8/8 600 м
[Sc]
+7.7 +3.4 74 +5 +5 по сезону 1015.3 1017.9
00 18.10 ЮЗ 3 10 км 9/9 600 м
[Sc]
+8.1 +4.7 79 +5 +5 по сезону 1016.3 1018.9
03 18.10 З 2 10 км 10/6 300 м
[Frnb As op]
+8.9 +5.8 81 +7 +7 по сезону 1018.3 1020.9 +7.4
06 18.10 З 3 10 км 10/10 1000 м
[Sc]
+10.2 +7.1 81 +8 +8 по сезону 1021.1 1023.7
09 18.10 З 3 10 км 10/10 600 м
[Cb cap]
+11.1 +6.5 73 +9 +9 по сезону 1022.0 1024.6
12 18.10 З 2 10 км 1/1 1000 м
[Sc]
+13.1 +5.0 58 +13 +14 по сезону 1022.1 1024.6
15 18.10 Ю 1 10 км ясно +8.1 +5.7 85 +7 +7 прохладно 1022.9 1025.5 +13.1
18 18.10 ЮЗ 2 10 км ясно +8.7 +5.2 79 +7 +7 по сезону 1023.2 1025.8
21 18.10 Ю 2 10 км ясно +8.0 +4.6 79 +6 +6 по сезону 1022.7 1025.3
00 19.10 Ю 2 10 км ясно +7.6 +5.0 84 +6 +6 по сезону 1022.4 1025.0
03 19.10 Ю 3 4000 м дымка ясно +7.0 +5.4 90 +4 +4 прохладно 1022.4 1025.0 +7.0
06 19.10 Ю 2 10 км 10/0
[As trans]
+9.9 +7.5 85 +8 +9 по сезону 1022.8 1025.4 +7.0
09 19.10 Ю 3 10 км 6/0
[Ci fib]
+15.5 +10.8 74 +15 +19 тепло 1021.2 1023.8
12 19.10 Ю 3 10 км 9/3 1000 м
[Sc Ci fib]
+15.8 +10.5 71 +15 +16 тепло 1020.2 1022.7
15 19.10 Ю 1 10 км 9/6 600 м
[Sc Ac trans]
+13.2 +10.3 83 +13 +13 тепло 1019.9 1022.5 +16.5

 

Местоположение метеостанции Астрахань (Астраханская область, Россия): широта 46.28 долгота 47.98 высота над уровнем моря -21 м.

В архиве по умолчанию представлена погода в Астрахани за последнюю неделю. Архивные данные за месяц целиком и за предыдущие месяцы, начиная с января 2011 года, Вы можете получить, выбрав интересующий диапазон дат из раскрывающегося списка и нажав кнопку "Ввод!".

Внимание! Время в таблицах - всемирное. Для получения местного времени необходимо прибавить поправку, которая в Астрахани равна 4 ч.

Смотрите также архив погоды в соседних городах и на ближайших метеорологических станциях:

Погода в Зеленге (Астраханская область, Россия) (50 км)
Погода в Досанге (Астраханская область, Россия) (71 км)
Погода в Лимане (Астраханская область, Россия) (79 км)
Погода в Ганюшкино (Атырауская область, Казахстан) (105 км)
Погода в Лагани (Калмыкия, Россия) (109 км)
Погода в Харабали (Астраханская область, Россия) (136 км)
Погода в Утте (Калмыкия, Россия) (151 км)
Погода в Юсте (Калмыкия, Россия) (158 км)
Погода в Исатай (Атырауская область, Казахстан) (170 км)
Погода в Артезиане (Калмыкия, Россия) (177 км)

Пояснения к столбцам:

Ветер - указаны скорость ветра в м/с - средняя за 10 мин, порывы в срок и между сроками (в фигурных скобках) и направление, откуда дует ветер: С - северный, СВ - северо-восточный, В - восточный, ЮВ - юго-восточный, Ю - южный, ЮЗ - юго-западный, З - западный, СЗ - северо-западный.
Видимость - горизонтальная дальность видимости в метрах или километрах. При видимости от 1 до 10 км при отсутствии осадков обычно наблюдается дымка, при ухудшении видимости до 1 км и менее - туман. В сухую погоду видимость может ухудшаться дымом, пылью или мглою.
Явления - указаны атмосферные явления, наблюдавшиеся в срок или в последний час перед сроком; фигурными скобками обозначены явления, наблюдавшиеся между сроками (за 1-3 часа до срока); квадратными скобками обозначены град или гололедные отложения с указанием их диаметра в мм.
Облачность - указаны через наклонную черту общая и нижняя облачность в баллах и высота нижней границы облаков в метрах; квадратными скобками обозначены формы облаков: Ci - перистые, Cs - перисто-слоистые, Cc - перисто-кучевые, Ac - высококучевые, As - высокослоистые, Sc - слоисто-кучевые, Ns - слоисто-дождевые, Cu - кучевые, Cb - кучево-дождевые. Подробнее классификацию облаков см. в Атласе облаков (PDF).
T - Температура воздуха - температура, измеренная на высоте 2 м над землей.
Td - Температура точки росы - температура, при понижении до которой содержащийся в воздухе водяной пар достигнет насыщения.
f - Относительная влажность воздуха - влажноcть воздуха, измеренная на высоте 2 м над землей.
Te - Эффективная температура - температура, которую ощущает одетый по сезону человек в тени. Характеристика душности погоды. При расчете учитывается влияние влажности воздуха и скорости ветра на теплоощущения человека.
Tes - Эффективная температура на солнце - температура, которую ощущает человек, с поправкой на солнечный нагрев. Характеристика знойности погоды. Зависит от высоты солнца над горизонтом, облачности и скорости ветра. Ночью, в пасмурную погоду, а также при ветре 12 м/с и более поправка равна нулю.
P - Атмосферное давление - приведенное к уровню моря атмосферное давление.
Po - Атмосферное давление - измеренное на уровне метеостанции атмосферное давление.
Tmin - Минимальная температура - минимум температуры воздуха на высоте 2 м над землей.
Tmax - Максимальная температура - максимум температуры воздуха на высоте 2 м над землей.
R - Количество осадков - Количество выпавших осадков за период времени, мм. При наведении курсора мыши на число - период времени, за который выпало указанное количество осадков.
R24 - Количество осадков - Количество выпавших осадков за 24 часа, мм.
S - Снежный покров - Высота снежного покрова, см. При наведении курсора мыши на число - состояние снежного покрова и степень покрытия местности в баллах.